Location: Banff
(51.1670°N, 115.5670°W)
Time: 10:49:47
(UTC-07:00)

Amateur Radio Satellites - All Passes

Search period start: 22 December 2014 10:19
Search period end: 23 December 2014 10:19
Location: Banff, 51.1670°N, 115.5670°W

Satellite Date Start Highest point End Downlink Frequencies (MHz)
Time Altitude Azimuth
DUCHIFAT 1 22 Dec 10:25:46 10:29:55 65° 72° (ENE) 10:34:07 145.980
Oscar 11 22 Dec 10:26:19 10:30:41 62° 101° (ESE) 10:35:00 145.826/435.025
AAUSAT CUBESAT 2 22 Dec 10:28:13 10:32:28 69° 287° (WNW) 10:36:40 437.432
UKube-1 22 Dec 10:36:09 10:40:26 55° 101° (E) 10:44:41 .
QB50P2 22 Dec 10:40:42 10:44:56 88° 255° (WSW) 10:49:12 145.880/145.840
BRITE-PL 22 Dec 10:45:19 10:49:31 35° 293° (WNW) 10:54:01 437.365/2234.400
CUSAT 1 22 Dec 10:49:05 10:53:12 50° 291° (WNW) 10:58:47 437.405
CANX-2 22 Dec 10:49:09 10:52:55 30° 295° (WNW) 10:56:40 2200.000
UNISAT 6 22 Dec 10:49:37 10:53:56 52° 260° (W) 10:58:24 437.425
POLYITAN 1 22 Dec 10:50:18 10:54:30 72° 257° (WSW) 10:58:45 437.675
NANOSAT C BR1 22 Dec 10:50:46 10:54:58 72° 257° (WSW) 10:59:12 145.865
CUBEBUG 2 22 Dec 10:59:24 11:04:03 86° 104° (ESE) 11:08:48 437.445
ZACube-1 22 Dec 11:01:36 11:06:08 70° 102° (ESE) 11:10:43 437.345
GOMX 1 22 Dec 11:02:09 11:06:22 34° 294° (WNW) 11:10:50 467.674
YUBILEINY 22 Dec 11:03:24 11:12:07 71° 76° (ENE) 11:20:48 435.215
COMPASS 1 22 Dec 11:05:25 11:09:07 29° 295° (WNW) 11:12:47 437.405
QB50P1 22 Dec 11:05:42 11:09:48 51° 260° (W) 11:13:56 145.935-145.965
DELFI C3 22 Dec 11:09:43 11:13:47 58° 289° (WNW) 11:17:49 145.870
50 SAT 22 Dec 11:09:58 11:13:56 41° 98° (E) 11:17:53 437.505
VELOX 1 22 Dec 11:10:18 11:14:35 46° 99° (E) 11:18:50 145.980
SEEDS 22 Dec 11:13:57 11:17:17 22° 298° (WNW) 11:20:36 437.485
DOVE 4 22 Dec 11:18:34 11:22:44 32° 295° (WNW) 11:27:06 437.250
ESTCUBE 1 22 Dec 11:20:10 11:24:01 27° 94° (E) 11:27:50 437.505/2401.250
CUTE 1.7 + AOD 2 22 Dec 11:20:18 11:23:16 18° 301° (WNW) 11:26:13 437.475
ANTELSAT 22 Dec 11:22:33 11:26:20 27° 267° (W) 11:30:13 437.575/2403.000
FUNcube-1 22 Dec 11:27:48 11:32:18 70° 287° (WNW) 11:36:52 145.935
CINEMA 3 22 Dec 11:29:24 11:33:44 37° 293° (WNW) 11:38:12 145.822/145.860
O/OREOS (USA 219) 22 Dec 11:33:13 11:36:41 22° 257° (WSW) 11:40:09 437.305
UWE-3 22 Dec 11:33:38 11:38:07 54° 290° (WNW) 11:42:39 435.000/436.395/437.385
POPSAT HIP 1 22 Dec 11:35:22 11:38:58 27° 266° (W) 11:42:37 437.405
HO-68 22 Dec 11:41:43 11:47:50 32° 307° (NW) 11:53:56 435.675
DX 1 22 Dec 11:43:36 11:47:35 35° 295° (WNW) 11:51:32 434.975-435.025
HUMSAT D 22 Dec 11:47:25 11:51:44 71° 287° (WNW) 11:56:04 437.325/437.525
RS-15 22 Dec 11:50:26 12:00:36 48° 114° (ESE) 12:10:50 29.354- 29.394
BUGSAT 1 22 Dec 11:52:10 11:55:22 22° 267° (W) 11:58:34 437.445
DANDE 22 Dec 11:52:11 11:55:29 20° 307° (NW) 11:59:33 436.750
CUBEBUG 1 22 Dec 11:53:20 11:57:35 51° 100° (E) 12:01:48 437.445
AISAT 22 Dec 11:54:38 11:59:03 69° 288° (WNW) 12:03:28 437.250
TIGRISAT 22 Dec 11:58:45 12:01:02 14° 274° (W) 12:03:21 435.000
Oscar 11 22 Dec 12:03:19 12:06:27 20° 300° (WNW) 12:09:35 145.826/435.025
AO-7 22 Dec 12:03:36 12:06:33 12° 20° (NNE) 12:09:30 29.400- 29.500
DUCHIFAT 1 22 Dec 12:03:40 12:06:14 16° 271° (W) 12:08:50 145.980
AAUSAT CUBESAT 2 22 Dec 12:06:13 12:07:20 11° 307° (NW) 12:08:28 437.432
Oscar 19 22 Dec 12:11:39 12:16:09 32° 62° (ENE) 12:20:42 437.125/150
UKube-1 22 Dec 12:12:59 12:16:17 21° 300° (WNW) 12:19:33 .
QB50P2 22 Dec 12:20:15 12:21:32 11° 274° (W) 12:22:50 145.880/145.840
ITAMSAT 1 22 Dec 12:32:42 12:36:35 22° 56° (ENE) 12:40:28 435.822/435.867
BEESAT 2 22 Dec 12:34:01 12:35:14 11° 109° (ESE) 12:36:28 435.950
CUSAT 1 22 Dec 12:37:17 12:38:19 11° 320° (NW) 12:39:25 437.405
CUBEBUG 2 22 Dec 12:37:20 12:40:11 16° 303° (WNW) 12:43:04 437.445
ZACube-1 22 Dec 12:38:54 12:42:04 19° 301° (WNW) 12:45:15 437.345
Gurwin Techsat 1B 22 Dec 12:40:11 12:43:36 18° 53° (NE) 12:47:02 435.225
TISAT 1 22 Dec 12:43:22 12:47:26 45° 99° (E) 12:51:30 437.305
50 SAT 22 Dec 12:45:34 12:48:58 25° 297° (WNW) 12:52:22 437.505
VELOX 1 22 Dec 12:47:20 12:50:57 25° 298° (WNW) 12:54:35 145.980
SWISSCUBE 22 Dec 12:50:22 12:52:06 12° 85° (E) 12:53:50 437.505
ITUPSAT 1 22 Dec 12:52:01 12:53:22 11° 85° (E) 12:54:43 437.325
SPROUT 22 Dec 12:53:15 12:57:29 54° 100° (E) 13:01:43 437.525
ESTCUBE 1 22 Dec 12:56:48 13:01:02 41° 293° (WNW) 13:05:15 437.505/2401.250
YUBILEINY 22 Dec 13:00:56 13:08:15 32° 279° (W) 13:15:35 435.215
FUNcube-1 22 Dec 13:06:05 13:07:53 12° 306° (NW) 13:09:42 145.935
BEESAT 22 Dec 13:13:44 13:17:01 18° 89° (E) 13:20:17 436.000
ISS 22 Dec 13:21:53 13:23:40 14° 139° (SE) 13:25:28 145.825
HUMSAT D 22 Dec 13:25:18 13:26:47 12° 306° (NW) 13:28:15 437.325/437.525
BEESAT 3 22 Dec 13:27:12 13:30:59 36° 121° (ESE) 13:34:49 437.485
CUBEBUG 1 22 Dec 13:30:19 13:33:41 23° 299° (WNW) 13:37:03 437.445
HO-68 22 Dec 13:32:30 13:33:25 10° 331° (NNW) 13:34:20 435.675
AISAT 22 Dec 13:33:20 13:34:53 12° 308° (NW) 13:36:27 437.250
AIST 2 22 Dec 13:46:17 13:49:51 26° 117° (ESE) 13:53:27 435.215
AO-7 22 Dec 13:49:50 13:56:42 30° 46° (NE) 14:03:35 29.400- 29.500
Oscar 19 22 Dec 13:50:24 13:55:21 46° 261° (W) 14:00:21 437.125/150
PCSat 22 Dec 13:54:39 13:59:43 42° 116° (ESE) 14:04:49 145.827
RS-15 22 Dec 14:01:41 14:12:34 69° 320° (NW) 14:23:40 29.354- 29.394
BEESAT 2 22 Dec 14:08:35 14:12:43 74° 128° (SE) 14:16:56 435.950
ITAMSAT 1 22 Dec 14:10:25 14:15:36 73° 256° (WSW) 14:20:48 435.822/435.867
Gurwin Techsat 1B 22 Dec 14:17:32 14:22:51 85° 73° (ENE) 14:28:12 435.225
HORYU 2 22 Dec 14:18:48 14:22:57 38° 66° (ENE) 14:27:08 437.375
TISAT 1 22 Dec 14:19:40 14:23:04 24° 298° (WNW) 14:26:27 437.305
SWISSCUBE 22 Dec 14:25:58 14:30:47 80° 105° (ESE) 14:35:32 437.505
ITUPSAT 1 22 Dec 14:27:19 14:32:08 75° 104° (ESE) 14:36:53 437.325
SPROUT 22 Dec 14:30:01 14:33:16 21° 299° (WNW) 14:36:31 437.525
AUBIESAT-1 22 Dec 14:33:56 14:37:40 27° 99° (E) 14:41:06 437.475
BEESAT 22 Dec 14:50:36 14:55:22 69° 289° (WNW) 15:00:06 436.000
ISS 22 Dec 14:56:29 14:59:42 52° 158° (SSE) 15:02:56 145.825
M-CUBED/EXP-1 PRIME 22 Dec 15:00:50 15:05:12 52° 105° (ESE) 15:09:10 437.505
GONETS M04 22 Dec 15:02:22 15:09:11 24° 53° (NE) 15:15:56
BEESAT 3 22 Dec 15:05:14 15:09:09 40° 321° (NW) 15:13:07 437.485
STARS 22 Dec 15:11:39 15:15:45 35° 97° (E) 15:19:49 437.465
KKS-1 22 Dec 15:19:49 15:24:15 59° 102° (ESE) 15:28:41 437.445
JAS-2 22 Dec 15:22:26 15:28:39 32° 59° (ENE) 15:34:19 435.910
AIST 2 22 Dec 15:24:02 15:28:14 53° 317° (NW) 15:32:29 435.215
PCSat 22 Dec 15:37:57 15:43:09 45° 317° (NW) 15:48:23 145.827
AO-7 22 Dec 15:40:14 15:48:36 89° 69° (ENE) 15:57:02 29.400- 29.500
Cubesat XI-IV 22 Dec 15:47:34 15:48:56 11° 46° (NE) 15:50:18 437.490
BEESAT 2 22 Dec 15:47:54 15:51:24 25° 330° (NNW) 15:54:57 435.950
ITAMSAT 1 22 Dec 15:54:10 15:56:02 12° 276° (W) 15:57:54 435.822/435.867
HORYU 2 22 Dec 15:55:46 15:59:42 30° 265° (W) 16:03:41 437.375
Gurwin Techsat 1B 22 Dec 16:00:09 16:03:32 17° 273° (W) 16:06:55 435.225
SWISSCUBE 22 Dec 16:04:53 16:08:05 18° 304° (NW) 16:11:17 437.505
ITUPSAT 1 22 Dec 16:06:10 16:09:31 19° 303° (WNW) 16:12:50 437.325
AUBIESAT-1 22 Dec 16:08:37 16:12:47 41° 300° (WNW) 16:16:36 437.475
RS-15 22 Dec 16:16:54 16:27:07 42° 352° (N) 16:37:38 29.354- 29.394
CUTE-I 22 Dec 16:17:41 16:21:06 18° 53° (NE) 16:24:30 437.470
BEESAT 22 Dec 16:30:14 16:32:23 13° 308° (NW) 16:34:31 436.000
ISS 22 Dec 16:32:56 16:36:15 80° 358° (N) 16:39:33 145.825
M-CUBED/EXP-1 PRIME 22 Dec 16:36:19 16:39:53 24° 307° (NW) 16:43:14 437.505
AIST 1 22 Dec 16:36:24 16:40:36 48° 94° (E) 16:44:48
MaSat-1 22 Dec 16:36:51 16:37:52 12° 45° (NE) 16:38:54 437.345
MOZHAYETS 4 22 Dec 16:45:11 16:48:40 21° 90° (E) 16:52:07
BEESAT 3 22 Dec 16:45:52 16:48:24 15° 344° (NNW) 16:50:56 437.485
STARS 22 Dec 16:48:14 16:52:11 32° 296° (WNW) 16:56:08 437.465
KKS-1 22 Dec 16:57:11 17:00:32 21° 301° (WNW) 17:03:53 437.445
GONETS M04 22 Dec 16:58:45 17:07:36 82° 79° (E) 17:16:19
AIST 2 22 Dec 17:04:46 17:07:46 18° 340° (NNW) 17:10:47 435.215
JAS-2 22 Dec 17:05:53 17:13:20 71° 257° (WSW) 17:20:03 435.910
Cubesat XI-IV 22 Dec 17:22:45 17:27:52 49° 67° (ENE) 17:32:59 437.490
PCSat 22 Dec 17:24:13 17:27:57 18° 342° (NNW) 17:31:41 145.827
BEESAT 2 22 Dec 17:28:58 17:31:02 13° 353° (N) 17:33:06 435.950
AO-7 22 Dec 17:35:57 17:42:29 25° 271° (W) 17:49:04 29.400- 29.500
CUTE-I 22 Dec 17:55:07 18:00:26 84° 73° (ENE) 18:05:47 437.470
CUSAT 1 22 Dec 17:56:39 18:00:10 14° 46° (NE) 18:03:54 437.405
MaSat-1 22 Dec 18:08:57 18:11:09 36° 242° (WSW) 18:13:27 437.345
ISS 22 Dec 18:09:34 18:12:51 70° 197° (SSW) 18:16:07 145.825
AIST 1 22 Dec 18:15:08 18:18:32 22° 294° (WNW) 18:21:57
CUBESAT XI-V 22 Dec 18:15:18 18:17:45 14° 87° (E) 18:20:12 437.345
PRISM 22 Dec 18:16:26 18:19:47 23° 93° (E) 18:23:06 437.425
MOZHAYETS 4 22 Dec 18:21:42 18:26:16 57° 289° (WNW) 18:30:47
BEESAT 3 22 Dec 18:26:08 18:28:13 13° 8° (N) 18:30:17 437.485
RS-15 22 Dec 18:31:43 18:42:26 50° 25° (NNE) 18:53:32 29.354- 29.394
HO-68 22 Dec 18:41:38 18:47:14 26° 49° (NE) 18:52:49 435.675
AIST 2 22 Dec 18:45:50 18:48:01 13° 4° (N) 18:50:12 435.215
JAS-2 22 Dec 18:55:09 18:59:23 16° 276° (W) 19:03:26 435.910
GONETS M04 22 Dec 18:56:32 19:03:28 28° 282° (WNW) 19:10:22
DANDE 22 Dec 18:58:22 19:04:23 26° 58° (ENE) 19:11:06 436.750
SEEDS 22 Dec 19:02:41 19:03:56 11° 53° (NE) 19:05:12 437.485
Cubesat XI-IV 22 Dec 19:03:33 19:08:11 30° 266° (W) 19:12:51 437.490
GOMX 1 22 Dec 19:04:08 19:04:37 10° 52° (NE) 19:05:07 467.674
CUTE 1.7 + AOD 2 22 Dec 19:08:07 19:10:22 14° 56° (NE) 19:12:37 437.475
BEESAT 2 22 Dec 19:08:16 19:10:55 16° 17° (NNE) 19:13:34 435.950
PCSat 22 Dec 19:10:20 19:13:32 16° 8° (N) 19:16:45 145.827
DOVE 4 22 Dec 19:18:08 19:19:09 11° 52° (NE) 19:20:10 437.250
STRAND 1 22 Dec 19:19:11 19:24:02 43° 98° (E) 19:28:52 437.568
CUTE-I 22 Dec 19:37:47 19:41:12 17° 272° (W) 19:44:39 437.470
CUSAT 1 22 Dec 19:38:00 19:45:10 45° 67° (ENE) 19:53:11 437.405
ISS 22 Dec 19:46:32 19:49:03 20° 216° (SW) 19:51:32 145.825
AAUSAT CUBESAT 2 22 Dec 19:50:00 19:53:13 22° 61° (ENE) 19:56:29 437.432
CUBESAT XI-V 22 Dec 19:51:12 19:55:50 83° 286° (WNW) 20:00:26 437.345
PRISM 22 Dec 19:51:33 19:55:31 43° 292° (WNW) 19:59:25 437.425
Oscar 11 22 Dec 19:52:29 19:54:50 14° 56° (NE) 19:57:11 145.826/435.025
MOZHAYETS 4 22 Dec 20:01:39 20:02:33 11° 309° (NW) 20:03:26
UKube-1 22 Dec 20:02:35 20:04:57 15° 55° (NE) 20:07:20 .
BEESAT 3 22 Dec 20:04:08 20:07:44 26° 32° (NNE) 20:11:18 437.485
CANX-2 22 Dec 20:11:02 20:15:11 50° 70° (ENE) 20:19:23 2200.000
BRITE-PL 22 Dec 20:23:24 20:27:30 66° 72° (ENE) 20:31:42 437.365/2234.400
AIST 2 22 Dec 20:24:36 20:28:07 23° 28° (NNE) 20:31:35 435.215
COMPASS 1 22 Dec 20:26:01 20:30:07 49° 70° (ENE) 20:34:15 437.405
HO-68 22 Dec 20:26:55 20:34:07 88° 71° (ENE) 20:41:21 435.675
CUBEBUG 2 22 Dec 20:28:05 20:31:07 19° 59° (ENE) 20:34:13 437.445
ZACube-1 22 Dec 20:28:53 20:31:23 15° 56° (ENE) 20:33:55 437.345
DELFI C3 22 Dec 20:28:54 20:32:10 23° 62° (ENE) 20:35:27 145.870
SEEDS 22 Dec 20:34:44 20:38:58 69° 73° (ENE) 20:43:16 437.485
GOMX 1 22 Dec 20:37:48 20:41:54 67° 72° (ENE) 20:46:09 467.674
VELOX 1 22 Dec 20:39:36 20:41:39 13° 54° (NE) 20:43:43 145.980
DANDE 22 Dec 20:41:13 20:48:46 84° 77° (ENE) 20:57:29 436.750
CUTE 1.7 + AOD 2 22 Dec 20:41:22 20:45:40 90° 69° (ENE) 20:50:00 437.475
RS-15 22 Dec 20:44:40 20:55:52 81° 233° (SW) 21:07:34 29.354- 29.394
BEESAT 2 22 Dec 20:46:09 20:50:12 43° 40° (NE) 20:54:12 435.950
DOVE 4 22 Dec 20:51:58 20:56:05 69° 73° (ENE) 21:00:23 437.250
FUNcube-1 22 Dec 20:53:44 20:57:08 24° 62° (ENE) 21:00:37 145.935
PCSat 22 Dec 20:54:01 20:58:46 29° 33° (NNE) 21:03:29 145.827
STRAND 1 22 Dec 20:58:37 21:03:09 33° 298° (WNW) 21:07:40 437.568
CINEMA 3 22 Dec 20:59:30 21:03:35 52° 70° (ENE) 21:07:50 145.822/145.860
UWE-3 22 Dec 21:00:16 21:04:00 31° 65° (ENE) 21:07:52 435.000/436.395/437.385
DX 1 22 Dec 21:07:56 21:12:09 52° 69° (ENE) 21:16:22 434.975-435.025
HUMSAT D 22 Dec 21:10:09 21:13:21 22° 61° (ENE) 21:16:36 437.325/437.525
CUSAT 1 22 Dec 21:21:03 21:28:29 57° 266° (W) 21:36:44 437.405
CUBEBUG 1 22 Dec 21:21:13 21:23:15 13° 55° (NE) 21:25:17 437.445
AISAT 22 Dec 21:22:04 21:25:51 29° 63° (ENE) 21:29:39 437.250
AAUSAT CUBESAT 2 22 Dec 21:24:29 21:28:36 51° 260° (W) 21:32:46 437.432
SO-50 22 Dec 21:24:52 21:29:18 51° 124° (SE) 21:33:54 436.795
Oscar 11 22 Dec 21:26:01 21:30:23 90° 256° (WSW) 21:34:47 145.826/435.025
CUBESAT XI-V 22 Dec 21:30:09 21:32:35 14° 305° (NW) 21:35:00 437.345
UKube-1 22 Dec 21:36:10 21:40:31 89° 256° (WSW) 21:44:53 .
BEESAT 3 22 Dec 21:42:07 21:46:17 68° 233° (SW) 21:50:24 437.485
CANX-2 22 Dec 21:48:10 21:51:25 21° 269° (W) 21:54:42 2200.000
COMPASS 1 22 Dec 22:02:53 22:06:07 21° 269° (W) 22:09:22 437.405
ZACube-1 22 Dec 22:02:57 22:07:11 80° 256° (WSW) 22:11:33 437.345
AIST 2 22 Dec 22:02:58 22:07:19 89° 47° (NE) 22:11:35 435.215
50 SAT 22 Dec 22:03:07 22:07:03 52° 71° (ENE) 22:11:02 437.505
CUBEBUG 2 22 Dec 22:03:14 22:07:25 60° 259° (W) 22:11:45 437.445
DELFI C3 22 Dec 22:03:15 22:07:12 45° 261° (W) 22:11:12 145.870
BRITE-PL 22 Dec 22:04:16 22:06:35 15° 272° (W) 22:08:56 437.365/2234.400
TIGRISAT 22 Dec 22:07:27 22:09:45 13° 86° (E) 22:12:02 435.000
TISAT 1 22 Dec 22:09:04 22:09:59 11° 53° (NE) 22:10:55 437.305
SEEDS 22 Dec 22:12:45 22:15:18 15° 272° (W) 22:17:51 437.485
VELOX 1 22 Dec 22:13:07 22:17:32 79° 73° (ENE) 22:21:59 145.980
HO-68 22 Dec 22:17:21 22:22:45 23° 271° (W) 22:28:11 435.675
GOMX 1 22 Dec 22:18:15 22:20:37 15° 272° (W) 22:23:01 467.674
YUBILEINY 22 Dec 22:18:54 22:23:50 17° 70° (ENE) 22:28:45 435.215
SPROUT 22 Dec 22:19:29 22:21:20 13° 55° (NE) 22:23:12 437.525
CUTE 1.7 + AOD 2 22 Dec 22:20:40 22:22:16 12° 274° (W) 22:23:51 437.475
QB50P2 22 Dec 22:23:29 22:24:46 11° 86° (E) 22:26:03 145.880/145.840
BEESAT 2 22 Dec 22:24:35 22:28:23 33° 240° (WSW) 22:32:07 435.950
ESTCUBE 1 22 Dec 22:24:46 22:29:06 47° 68° (ENE) 22:33:27 437.505/2401.250
DANDE 22 Dec 22:25:28 22:31:44 29° 275° (W) 22:38:39 436.750
FUNcube-1 22 Dec 22:29:12 22:33:16 45° 262° (W) 22:37:27 145.935
DOVE 4 22 Dec 22:32:09 22:34:28 14° 273° (W) 22:36:49 437.250
POLYITAN 1 22 Dec 22:32:24 22:34:39 14° 88° (E) 22:36:55 437.675
NANOSAT C BR1 22 Dec 22:32:27 22:34:37 14° 88° (E) 22:36:46 145.865
UWE-3 22 Dec 22:36:41 22:40:32 33° 265° (W) 22:44:30 435.000/436.395/437.385
UNISAT 6 22 Dec 22:36:49 22:40:42 25° 92° (E) 22:44:33 437.425
PCSat 22 Dec 22:37:18 22:42:45 79° 236° (SW) 22:48:10 145.827
CINEMA 3 22 Dec 22:38:04 22:41:10 20° 270° (W) 22:44:21 145.822/145.860
HUMSAT D 22 Dec 22:44:50 22:48:52 50° 261° (W) 22:53:00 437.325/437.525
DX 1 22 Dec 22:45:24 22:48:41 21° 268° (W) 22:52:00 434.975-435.025
QB50P1 22 Dec 22:46:39 22:49:41 19° 91° (E) 22:52:42 145.935-145.965
CUBEBUG 1 22 Dec 22:54:35 22:58:57 82° 74° (ENE) 23:03:19 437.445
RS-15 22 Dec 22:57:59 23:06:39 27° 257° (WSW) 23:15:37 29.354- 29.394
AISAT 22 Dec 22:58:14 23:02:22 39° 262° (W) 23:06:32 437.250
Oscar 11 22 Dec 23:05:32 23:07:13 12° 274° (W) 23:08:55 145.826/435.025
SO-50 22 Dec 23:05:44 23:10:03 36° 326° (NW) 23:14:29 436.795
CUSAT 1 22 Dec 23:06:27 23:10:17 15° 284° (WNW) 23:14:17 437.405
ANTELSAT 22 Dec 23:08:36 23:13:10 46° 99° (E) 23:17:43 437.575/2403.000
POPSAT HIP 1 22 Dec 23:15:06 23:19:00 33° 96° (E) 23:22:54 437.405
UKube-1 22 Dec 23:15:45 23:17:21 12° 273° (W) 23:18:57 .
BEESAT 3 22 Dec 23:23:23 23:23:39 10° 252° (WSW) 23:23:55 437.485
BUGSAT 1 22 Dec 23:28:33 23:32:19 36° 97° (E) 23:36:05 437.445
50 SAT 22 Dec 23:39:46 23:42:35 18° 270° (W) 23:45:26 437.505
TISAT 1 22 Dec 23:40:52 23:45:02 67° 72° (ENE) 23:49:13 437.305
DUCHIFAT 1 22 Dec 23:41:36 23:45:50 60° 101° (ESE) 23:50:03 145.980
TIGRISAT 22 Dec 23:42:26 23:47:11 88° 105° (ESE) 23:51:55 435.000
AIST 2 22 Dec 23:42:54 23:45:19 15° 249° (WSW) 23:47:43 435.215
ZACube-1 22 Dec 23:43:55 23:44:22 10° 276° (W) 23:44:48 437.345
VELOX 1 22 Dec 23:52:21 23:54:42 14° 272° (W) 23:57:04 145.980
SPROUT 22 Dec 23:52:28 23:56:44 80° 74° (ENE) 00:01:03 437.525
AUBIESAT-1 22 Dec 23:54:01 23:57:12 18° 49° (NE) 00:00:21 437.475
QB50P2 22 Dec 23:57:04 00:01:22 86° 105° (ESE) 00:05:40 145.880/145.840
SWISSCUBE 23 Dec 00:01:06 00:05:02 26° 61° (ENE) 00:08:59 437.505
ESTCUBE 1 23 Dec 00:02:29 00:06:12 25° 267° (W) 00:09:56 437.505/2401.250
ITUPSAT 1 23 Dec 00:02:44 00:06:36 25° 60° (ENE) 00:10:30 437.325
NANOSAT C BR1 23 Dec 00:06:46 00:11:02 78° 287° (WNW) 00:15:18 145.865
POLYITAN 1 23 Dec 00:06:51 00:11:09 77° 287° (WNW) 00:15:27 437.675
YUBILEINY 23 Dec 00:10:18 00:18:55 68° 94° (E) 00:27:32 435.215
O/OREOS (USA 219) 23 Dec 00:11:35 00:15:00 22° 103° (ESE) 00:18:27 437.305
UNISAT 6 23 Dec 00:13:10 00:17:44 50° 291° (WNW) 00:22:18 437.425
M-CUBED/EXP-1 PRIME 23 Dec 00:20:20 00:24:29 28° 56° (NE) 00:28:36 437.505
QB50P1 23 Dec 00:21:44 00:25:55 56° 289° (WNW) 00:30:06 145.935-145.965
PCSat 23 Dec 00:22:17 00:25:19 15° 256° (WSW) 00:28:21 145.827
BEESAT 23 Dec 00:24:59 00:29:22 37° 65° (ENE) 00:33:47 436.000
CUBEBUG 1 23 Dec 00:33:47 00:35:55 13° 273° (W) 00:38:03 437.445
STARS 23 Dec 00:41:57 00:42:27 10° 51° (NE) 00:42:56 437.465
ANTELSAT 23 Dec 00:45:46 00:49:46 28° 297° (WNW) 00:53:47 437.575/2403.000
SO-50 23 Dec 00:48:40 00:51:54 18° 350° (N) 00:55:11 436.795
KKS-1 23 Dec 00:48:44 00:51:28 16° 56° (NE) 00:54:11 437.445
POPSAT HIP 1 23 Dec 00:51:06 00:54:52 31° 295° (WNW) 00:58:39 437.405
BUGSAT 1 23 Dec 01:04:18 01:07:44 27° 296° (WNW) 01:11:11 437.445
DUCHIFAT 1 23 Dec 01:18:17 01:21:19 19° 300° (WNW) 01:24:21 145.980
TISAT 1 23 Dec 01:18:49 01:21:19 15° 271° (W) 01:23:50 437.305
TIGRISAT 23 Dec 01:20:25 01:23:18 16° 304° (NW) 01:26:12 435.000
AUBIESAT-1 23 Dec 01:26:36 01:31:30 83° 68° (ENE) 01:36:22 437.475
SPROUT 23 Dec 01:31:21 01:33:25 13° 273° (W) 01:35:30 437.525
QB50P2 23 Dec 01:34:21 01:36:42 15° 304° (WNW) 01:39:03 145.880/145.840
SWISSCUBE 23 Dec 01:37:58 01:42:39 52° 260° (W) 01:47:21 437.505
ITUPSAT 1 23 Dec 01:39:30 01:44:13 55° 259° (W) 01:48:57 437.325
NANOSAT C BR1 23 Dec 01:44:29 01:46:13 12° 306° (NW) 01:47:58 145.865
POLYITAN 1 23 Dec 01:44:38 01:46:23 12° 306° (NW) 01:48:09 437.675
O/OREOS (USA 219) 23 Dec 01:49:42 01:54:05 53° 303° (WNW) 01:58:29 437.305
M-CUBED/EXP-1 PRIME 23 Dec 01:54:24 01:59:13 55° 254° (WSW) 02:04:02 437.505
Oscar 19 23 Dec 01:56:26 02:01:25 43° 98° (E) 02:06:21 437.125/150
BEESAT 23 Dec 02:02:54 02:07:15 34° 264° (W) 02:11:38 436.000
YUBILEINY 23 Dec 02:08:34 02:16:25 36° 297° (WNW) 02:24:17 435.215
STARS 23 Dec 02:13:43 02:18:02 59° 70° (ENE) 02:22:23 437.465
ITAMSAT 1 23 Dec 02:18:22 02:22:46 27° 93° (E) 02:27:09 435.822/435.867
KKS-1 23 Dec 02:23:06 02:27:32 82° 255° (WSW) 02:32:01 437.445
Gurwin Techsat 1B 23 Dec 02:29:04 02:33:16 23° 91° (E) 02:37:27 435.225
SO-50 23 Dec 02:30:43 02:34:10 19° 14° (NNE) 02:37:38 436.795
AIST 1 23 Dec 02:38:44 02:42:07 22° 66° (ENE) 02:45:27
AUBIESAT-1 23 Dec 03:03:49 03:06:58 17° 266° (W) 03:10:06 437.475
O/OREOS (USA 219) 23 Dec 03:32:36 03:34:33 13° 325° (NW) 03:36:31 437.305
Oscar 19 23 Dec 03:36:00 03:40:40 34° 297° (WNW) 03:45:18 437.125/150
AO-7 23 Dec 03:36:53 03:43:04 22° 88° (E) 03:49:11 29.400- 29.500
HORYU 2 23 Dec 03:41:33 03:45:46 37° 97° (E) 03:49:57 437.375
STARS 23 Dec 03:51:49 03:54:54 19° 269° (W) 03:58:01 437.465
MOZHAYETS 4 23 Dec 03:51:59 03:56:12 35° 65° (ENE) 04:00:26
ITAMSAT 1 23 Dec 03:57:31 04:02:32 51° 293° (WNW) 04:07:32 435.822/435.867
KKS-1 23 Dec 04:03:42 04:04:56 11° 275° (W) 04:06:11 437.445
Gurwin Techsat 1B 23 Dec 04:08:25 04:13:40 63° 290° (WNW) 04:18:54 435.225
SO-50 23 Dec 04:11:14 04:15:53 43° 37° (NE) 04:20:34 436.795
GONETS M04 23 Dec 04:13:04 04:18:56 20° 73° (ENE) 04:24:47
JAS-2 23 Dec 04:13:30 04:14:51 11° 80° (E) 04:16:11 435.910
YUBILEINY 23 Dec 04:15:11 04:16:44 11° 327° (NNW) 04:18:18 435.215
AIST 1 23 Dec 04:15:56 04:20:02 46° 266° (W) 04:24:06
VERMONT LUNAR 23 Dec 04:39:03 04:41:06 15° 177° (S) 04:43:10 437.305
STRAND 1 23 Dec 05:03:08 05:06:44 20° 55° (NE) 05:10:19 437.568
PHONESAT 2.4 23 Dec 05:06:17 05:08:29 15° 178° (S) 05:10:41 2401.200-2431.200
PRISM 23 Dec 05:11:54 05:15:46 35° 66° (ENE) 05:19:38 437.425
HORYU 2 23 Dec 05:18:22 05:22:23 32° 296° (WNW) 05:26:22 437.375
CUBESAT XI-V 23 Dec 05:23:22 05:27:12 26° 62° (ENE) 05:31:03 437.345
AO-7 23 Dec 05:28:40 05:37:07 83° 110° (ESE) 05:45:30 29.400- 29.500
MOZHAYETS 4 23 Dec 05:29:11 05:33:26 34° 264° (W) 05:37:42
Cubesat XI-IV 23 Dec 05:36:33 05:38:48 13° 84° (E) 05:41:02 437.490
ITAMSAT 1 23 Dec 05:39:32 05:40:56 11° 313° (NW) 05:42:20 435.822/435.867
Gurwin Techsat 1B 23 Dec 05:50:10 05:52:40 14° 311° (NW) 05:55:10 435.225
SO-50 23 Dec 05:51:53 05:56:30 43° 238° (WSW) 06:01:09 436.795
JAS-2 23 Dec 05:55:37 06:01:21 69° 102° (ESE) 06:06:35 435.910
GONETS M04 23 Dec 06:05:29 06:14:18 78° 96° (E) 06:23:08
CUTE-I 23 Dec 06:07:36 06:11:45 23° 91° (E) 06:15:52 437.470
VERMONT LUNAR 23 Dec 06:17:15 06:18:32 12° 194° (SSW) 06:19:49 437.305
STRAND 1 23 Dec 06:40:14 06:45:21 81° 255° (WSW) 06:50:30 437.568
PHONESAT 2.4 23 Dec 06:44:50 06:46:18 12° 195° (SSW) 06:47:46 2401.200-2431.200
PRISM 23 Dec 06:47:40 06:51:21 29° 265° (W) 06:55:03 437.425
CUBESAT XI-V 23 Dec 06:59:55 07:04:26 48° 261° (W) 07:08:57 437.345
Cubesat XI-IV 23 Dec 07:14:29 07:19:50 75° 104° (ESE) 07:25:09 437.490
AO-7 23 Dec 07:22:04 07:29:11 33° 312° (NW) 07:36:17 29.400- 29.500
JAS-2 23 Dec 07:41:27 07:45:55 24° 306° (NW) 07:50:05 435.910
CUTE-I 23 Dec 07:47:00 07:52:17 65° 290° (WNW) 07:57:32 437.470
HO-68 23 Dec 07:51:44 07:54:19 12° 81° (E) 07:56:53 435.675
GONETS M04 23 Dec 08:04:27 08:12:06 32° 300° (WNW) 08:19:47
YUBILEINY 23 Dec 08:18:38 08:22:28 13° 39° (NE) 08:26:18 435.215
BRITE-PL 23 Dec 08:22:59 08:25:53 16° 89° (E) 08:28:54 437.365/2234.400
STRAND 1 23 Dec 08:23:00 08:25:23 13° 274° (W) 08:27:46 437.568
CUTE 1.7 + AOD 2 23 Dec 08:23:47 08:25:23 12° 86° (E) 08:26:59 437.475
GOMX 1 23 Dec 08:34:44 08:37:34 15° 88° (E) 08:40:28 467.674
O/OREOS (USA 219) 23 Dec 08:36:24 08:39:45 20° 43° (NE) 08:43:07 437.305
ANTELSAT 23 Dec 08:39:19 08:41:17 13° 53° (NE) 08:43:15 437.575/2403.000
DOVE 4 23 Dec 08:46:29 08:49:15 15° 88° (E) 08:52:04 437.250
Cubesat XI-IV 23 Dec 08:55:25 08:59:25 22° 304° (NW) 09:03:25 437.490
CUSAT 1 23 Dec 08:56:45 09:00:10 22° 81° (E) 09:04:24 437.405
MaSat-1 23 Dec 09:02:10 09:04:19 50° 120° (ESE) 09:06:28 437.345
AAUSAT CUBESAT 2 23 Dec 09:03:36 09:06:39 19° 90° (E) 09:09:41 437.432
DUCHIFAT 1 23 Dec 09:06:18 09:08:20 13° 55° (NE) 09:10:22 145.980
Oscar 11 23 Dec 09:10:14 09:12:01 12° 86° (E) 09:13:48 145.826/435.025
TIGRISAT 23 Dec 09:11:07 09:14:31 22° 60° (ENE) 09:17:58 435.000
AO-7 23 Dec 09:16:05 09:19:27 13° 337° (NNW) 09:22:50 29.400- 29.500
QB50P2 23 Dec 09:21:05 09:23:58 18° 59° (ENE) 09:26:51 145.880/145.840
UKube-1 23 Dec 09:21:24 09:22:28 11° 86° (E) 09:23:33 .
CANX-2 23 Dec 09:27:15 09:31:30 50° 99° (E) 09:35:41 2200.000
CUTE-I 23 Dec 09:28:46 09:31:25 14° 311° (NW) 09:34:04 437.470
NANOSAT C BR1 23 Dec 09:30:09 09:33:19 21° 61° (ENE) 09:36:30 145.865
POLYITAN 1 23 Dec 09:30:35 09:33:48 22° 61° (ENE) 09:37:03 437.675
HO-68 23 Dec 09:36:34 09:43:39 58° 102° (ESE) 09:50:39 435.675
DELFI C3 23 Dec 09:39:21 09:42:18 19° 91° (E) 09:45:14 145.870
COMPASS 1 23 Dec 09:40:28 09:44:37 46° 99° (E) 09:48:42 437.405
UNISAT 6 23 Dec 09:40:59 09:45:06 38° 66° (ENE) 09:49:20 437.425
QB50P1 23 Dec 09:44:35 09:48:10 28° 64° (ENE) 09:51:47 145.935-145.965
ZACube-1 23 Dec 09:47:41 09:50:24 15° 88° (E) 09:53:08 437.345
CUBEBUG 2 23 Dec 09:49:35 09:53:11 22° 91° (E) 09:56:49 437.445
SEEDS 23 Dec 09:50:08 09:54:26 67° 102° (ESE) 09:58:41 437.485
CUTE 1.7 + AOD 2 23 Dec 09:57:37 10:01:59 89° 105° (ESE) 10:06:18 437.475
BRITE-PL 23 Dec 10:00:13 10:04:55 81° 286° (WNW) 10:10:00 437.365/2234.400
VELOX 1 23 Dec 10:01:29 10:02:25 11° 85° (E) 10:03:20 145.980
DANDE 23 Dec 10:02:01 10:06:02 66° 97° (E) 10:11:36 436.750
